CZ-6A DEB, 55237

Orbit data source: Space-Track

CZ-6A DEB, 55237 is space debris in SSO originally from a launch on Fri, 11 Nov 2022 UTC launched from the Taiyaun Space Center, China (TSC). Debris objects in space refer to the collection of defunct objects orbiting the Earth. Examples of debris include non-operational satellites, rocket bodies, and fragments generated from explosions, collisions, or faulty payload assembly.

Loading next visibility...
Identifier
55237, 2022-151XE
Orbit
SSO
Country
Flag of CNCN / PRC
Related business
Manufacturer
SAST
Mission
Spacecraft
Bus & Motor
Unknown
Mass
Unknown
Launch date (UTC)
2022-11-11 (3 years ago)
Launch vehicle
Unknown
Launch site
Taiyaun Space Center, China (TSC)
Object type
Payload
Rocket body
Debris
Shape & HBR
Unknown shape, 0.1 m
Radar Cross Section
Small (<0.1 m²)

Expand to show TLE details & history
Last TLE update: 11 hours ago

TLE from 11 hours ago
0 CZ-6A DEB
1 55237U 22151XE  25353.20090537  .00003335  00000-0  68351-3 0  9997
2 55237  98.7747  70.6296 0109283  91.7014 269.6704 14.57742344163040
Epoch: 2025-12-19T04:49Z
TLE epoch observation values (Epoch: 2025-12-19T04:49:18.223Z)
Latitude
-0.00004°
Longitude
-89.74179°
Altitude
704.728 km
Speed
7.503 km/s
True Right ascension
04h 42m 31s
True Declination
0° 00' 00"
Sunlit
Object was in full shadow at epoch
Visualization orbit readout
Latitude
Unknown
Longitude
Unknown
Altitude
Unknown
Speed
Unknown
Apparent Right ascension
Unknown
Apparent Declination
Unknown
Sunlit
N/A
Visualization observer readout
Local Sidereal Time
15:10:49
Azimuth
Unknown
Elevation
Unknown
Doppler factor
Unknown
Orbital elements
Apogee altitude
774.91 km
Perigee altitude
620.259 km
Semi-major axis
7,075.721 km
Eccentricity
0.01093
Inclination
98.7747°
RAAN
70.6296°
Arg. of periapsis
91.7014°
True anomaly
268.41833°
Mean anomaly
269.6704°
Eccentric anomaly
269.04434°
Mean motion
3.64659 °/min
Orbital period
98.72 mins
BSTAR
0.00068351
Loading maneuver chart data...
Computing Atmospheric mass density...
Loading historical data...
Loading historical data...
Loading historical data...
Loading historical data...
Loading historical data...
Loading historical data...
Loading historical data...

Documentation

Showing up to 5 results
|